Lid_Strength_Index
4 3 3 3 3 3 3 3 3 3 3 3 3 2 3 2 3 7 10 8 6 3 3 6 6 6 5 7 5 5 11 14 12 12 11 7 8 6 5 6 5 5 5 4 2
4 4 3 3 3 3 3 3 3 3 3 3 3 2 2 2 7 10 5 1 2 2 6 7 8 7 10 8 8 9 12 13 10 9 10 9 9 8 8 7 7 6 4 3 3
4 3 3 2 2 3 3 3 3 2 2 3 2 2 2 5 11 11 3 1 2 4 6 6 6 8 11 9 10 10 14 11 10 9 9 9 9 8 8 9 7 8 8 5 4
3 3 3 2 2 2 3 3 2 2 2 2 2 2 2 7 17 9 2 1 2 6 7 9 8 11 12 13 9 12 11 10 10 9 10 10 9 10 9 9 5 7 8 7 4
3 3 3 3 3 3 3 3 2 2 2 2 2 2 5 10 10 6 2 4 6 7 9 10 11 11 13 12 11 13 12 11 9 10 10 10 11 11 11 9 8 7 6 6 5
3 3 3 3 3 3 2 2 2 2 2 1 2 2 8 12 7 6 6 6 7 8 9 9 11 10 12 12 12 11 11 12 11 11 10 11 12 11 11 8 8 6 6 7 5
3 3 3 3 3 2 2 2 2 1 1 1 1 4 7 10 6 7 6 7 7 7 9 8 8 9 10 11 9 10 13 12 12 11 12 10 14 14 11 9 10 9 8 7 6
3 2 2 3 2 2 2 2 2 1 1 1 1 6 9 6 6 6 6 6 5 4 5 5 5 7 8 7 9 11 11 15 12 10 10 11 18 14 12 10 10 9 8 7 4
2 2 2 2 2 2 2 2 2 2 2 3 6 7 11 5 9 7 6 6 4 4 3 3 5 7 8 11 13 12 18 16 14 10 10 11 16 14 12 12 13 12 9 6 5
2 3 3 3 3 2 2 2 4 6 7 6 6 11 10 12 8 6 5 3 4 4 5 6 7 10 10 13 19 19 17 16 16 13 11 12 13 13 11 11 12 11 10 9 8
3 3 3 3 3 3 7 10 13 14 12 13 14 12 11 9 7 7 4 4 4 7 10 8 11 13 13 12 13 13 16 17 14 12 12 12 12 13 12 12 11 10 9 6 6
3 3 3 3 3 5 9 12 12 11 15 12 11 11 10 8 9 6 3 8 8 11 9 11 13 10 10 11 13 14 16 17 14 12 13 13 13 12 13 13 12 11 10 7 6
3 3 3 3 4 8 10 11 9 11 17 15 13 12 10 7 8 8 5 6 9 11 10 13 11 9 11 12 13 14 15 16 15 13 12 13 14 13 12 12 12 11 10 10 6
3 3 3 3 9 10 11 9 10 12 25 19 15 11 8 8 10 5 4 6 9 11 10 11 10 11 12 12 12 15 12 13 13 14 18 13 19 14 13 13 12 12 10 10 6
3 3 3 6 10 11 10 10 11 13 30 16 14 8 8 10 9 7 4 6 10 11 10 13 12 12 13 12 11 13 11 12 12 14 15 16 17 16 12 14 13 11 10 6 7
3 4 5 8 10 11 10 12 13 23 31 23 14 13 13 12 10 8 7 5 7 10 10 11 9 10 11 10 10 10 11 12 12 14 19 17 17 18 14 14 13 11 8 9 9
4 6 8 9 12 10 11 14 23 27 21 22 18 13 14 15 12 11 11 13 13 16 19 14 14 9 10 13 11 12 16 20 21 20 22 19 18 16 12 10 11 9 10 10 10
6 8 9 10 11 11 14 20 29 32 28 17 14 13 18 14 15 14 13 16 11 12 15 19 20 12 10 12 14 14 16 21 26 23 21 16 19 15 11 10 8 9 11 11 11
7 12 11 11 10 13 18 27 28 27 17 17 15 21 21 15 17 18 18 15 12 11 17 17 18 11 11 10 11 14 17 13 17 16 19 17 15 12 11 12 11 11 12 12 12
12 13 12 11 12 15 22 24 26 18 15 14 22 17 23 22 18 20 19 15 13 10 11 15 18 13 11 11 11 13 11 17 17 22 23 19 18 18 15 14 14 14 14 14 13
14 16 13 13 15 20 26 30 26 15 14 15 16 18 17 19 17 18 18 14 11 12 12 13 14 15 12 14 14 13 15 14 15 16 21 21 19 15 15 14 14 14 14 14 14
15 20 13 13 20 30 26 27 16 15 12 12 12 13 17 15 17 21 18 14 11 12 15 13 14 17 16 11 12 12 14 14 18 19 17 19 20 15 13 13 14 14 14 14 14
18 18 13 14 25 26 26 23 18 16 15 12 14 12 13 18 18 16 15 11 11 13 15 13 15 20 18 16 14 16 14 14 13 15 19 21 20 14 15 15 14 14 14 14 14
17 20 18 20 21 22 26 24 22 15 13 10 11 12 13 18 15 17 15 12 12 12 10 10 15 20 20 18 16 18 16 15 15 19 19 19 19 17 17 17 15 15 15 14 14
18 21 19 23 23 21 18 19 21 20 13 11 15 14 15 18 17 20 15 14 12 12 13 14 17 16 16 15 15 17 17 16 17 18 20 19 20 18 17 16 16 15 15 15 16
18 18 18 23 18 18 18 18 19 18 14 15 15 14 13 18 15 16 15 14 15 14 15 14 17 16 17 16 15 17 17 16 16 16 16 17 18 15 15 15 16 15 15 16 16
16 15 15 17 18 20 19 17 16 16 13 12 13 14 15 14 14 13 13 14 14 15 16 17 20 21 23 19 17 19 18 18 16 15 16 19 17 15 17 17 17 16 16 16 16